Regional Weather Roundup
Issued by NWS

Home | Current Version | Previous Version | Graphics & Text | Print | Product List | Glossary On
Versions: 1 2 3 4 5 6 7 8 9 10 11 12 13 14 15 16 17 18 19 20 21 22 23 24 25 26 27 28 29 30 31 32 33 34 35 36 37 38 39 40 41 42 43 44 45 46 47 48 49 50
868
ASUS43 KLSX 220257
RWRMO

WEATHER SUMMARY FOR MISSOURI
NATIONAL WEATHER SERVICE SPRINGFIELD MO
900 PM CST WED FEB 21 2018

NOTE: "FAIR" INDICATES FEW OR NO CLOUDS BELOW 12,000 FEET WITH NO
       SIGNIFICANT WEATHER AND/OR OBSTRUCTIONS TO VISIBILITY.
       CURRENT SKY AND/OR WEATHER CONDITIONS ARE NOT AVAILABLE FOR
       CHILLICOTHE AND FARMINGTON.

MOZ001>031-035>038-043-044-053-054-220400-
...NORTHERN AND WESTERN MISSOURI...

CITY           SKY/WX    TMP DP  RH WIND       PRES   REMARKS
KANSAS CTY INT CLOUDY    27  23  85 E16       30.47F WCI  15
LEE`S SUMMIT   CLOUDY    27  24  89 NE12      30.46F WCI  17
ST JOSEPH      CLOUDY    27  23  85 NE12      30.51F WCI  17
CHILLICOTHE      N/A     27  21  78 N9        30.54F WCI  18

$$
MOZ066>068-077>081-088>096-101>105-220400-
...SOUTHWEST MISSOURI...

CITY           SKY/WX    TMP DP  RH WIND       PRES   REMARKS
SPRINGFIELD    CLOUDY    29  27  92 E15       30.29F WCI  18
JOPLIN         CLOUDY    29  28  96 NE10      30.38R WCI  20
BRANSON        FRZ RAIN  30  30 100 NE7       30.33F FOG     WCI  23

$$
MOZ032>034-039>042-045>050-055>058-069>072-220400-
...CENTRAL MISSOURI...

CITY           SKY/WX    TMP DP  RH WIND       PRES   REMARKS
COLUMBIA       NOT AVBL
JEFFERSON CITY CLOUDY    29  26  89 E8        30.48F WCI  21
ROLLA          CLOUDY    27  26  96 NE15      30.44F WCI  15
SEDALIA        CLOUDY    29  27  92 NE10      30.48F WCI  20
WARRENSBURG    CLOUDY    28  25  86 NE7       30.48F WCI  21

$$
MOZ051-052-059>065-220400-
...EAST CENTRAL MISSOURI...

CITY           SKY/WX    TMP DP  RH WIND       PRES   REMARKS
ST LOUIS INTL  CLOUDY    32  30  92 N8        30.52R WCI  25

$$
MOZ072>076-082>087-097>100-106>115-220400-
...SOUTH CENTRAL AND SOUTHEAST MISSOURI...

CITY           SKY/WX    TMP DP  RH WIND       PRES   REMARKS
CAPE GIRARDEAU RAIN      35  33  92 N13       30.41F FOG     WCI  26
POPLAR BLUFF   LGT RAIN  34  32  92 N18       30.39F WCI  23
WEST PLAINS    FRZ RAIN  32  30  92 NE10      30.39F FOG     WCI  24

$$



USA.gov is the U.S. government's official web portal to all federal, state and local government web resources and services.